カタログに戻る

DMSP 5D-2 F11 DEB

運用中PO
NORAD 28325·DEBRIS·🇺🇸 United States

打ち上げ Nov 28, 1991 から Vandenberg Space Force Base

Loading…

次のパス (今後24時間)

TLE

最新Source: Space-Track

元期: Sep 14, 2026, 16:15 UTC

1 28325U 91082AN  26257.67772581  .00030749  00000-0  31467-2 0  9991
2 28325  98.5591 155.0880 0019477 188.2007 201.7419 14.90313657156162

AllMySatでDMSP 5D-2 F11 DEBをリアルタイム追跡

Download on the App Store